Haines, AK

11:03 PM AKDT on September 26, 2016 (GMT -0800)
Haines

Weather History for PAHN - February, 2012

Change the Weather History Date:

Saturday, February 11, 2012

  Actual Average Record
Temperature  
Mean Temperature 34 °F -  
Max Temperature 41 °F 31 °F 47 °F (1989)
Min Temperature 28 °F 23 °F -5 °F (1975)
Degree Days  
Heating Degree Days 30    
Moisture  
Dew Point 31 °F    
Average Humidity 88    
Maximum Humidity 100    
Minimum Humidity 61    
Precipitation  
Precipitation 0.69 in - - ()
Sea Level Pressure  
Sea Level Pressure 29.70 in    
Wind  
Wind Speed 6 mph (East)    
Max Wind Speed 15 mph    
Max Gust Speed 25 mph    
Visibility 7 miles    
Events Rain , Snow    
Averages and records for this station are not official NWS values.
T = Trace of Precipitation, MM = Missing Value Source: NWS Daily Summary

Daily Weather History Graph

Daily Weather History Graph

Search for Another Location

Airport or City:

Trip Planner

Search our weather history database for the weather conditions in past years. The results will help you decide how hot, cold, wet, or windy it might be!

Date:

Astronomy

Feb. 11, 2012 Rise Set
Actual Time 7:48 AM AKST 4:45 PM AKST
Civil Twilight 7:04 AM AKST 5:28 PM AKST
Nautical Twilight 6:16 AM AKST 6:16 PM AKST
Astronomical Twilight 5:29 AM AKST 7:03 PM AKST
Moon 11:15 PM AKST (2/11) 8:14 AM AKST (2/11)
Length of Visible Light 10h 23m
Length of Day
8h 56m
Waning Gibbous, 81% of the Moon is Illuminated
Feb 11
Waning Gibbous
Feb 14
Last Quarter
Feb 21
New
Feb 29
First Quarter
Mar 8
Full

Hourly Weather History & Observations

Time (AKST) Temp. Windchill Dew Point Humidity Pressure Visibility Wind Dir Wind Speed Gust Speed Precip Events Conditions
12:54 AM 30.0 °F - 28.9 °F 96% 29.97 in 10.0 mi Calm Calm - N/A   Clear
1:54 AM 28.0 °F 24.2 °F 27.0 °F 96% 29.96 in 10.0 mi ESE 3.5 mph - N/A   Clear
2:54 AM 28.0 °F 22.8 °F 27.0 °F 96% 29.94 in 10.0 mi NW 4.6 mph - N/A   Clear
3:54 AM 28.0 °F - 27.0 °F 96% 29.93 in 10.0 mi Calm Calm - N/A   Partly Cloudy
4:54 AM 28.9 °F - 28.0 °F 96% 29.91 in 10.0 mi Calm Calm - N/A   Overcast
5:54 AM 28.0 °F - 27.0 °F 96% 29.91 in 10.0 mi Calm Calm - N/A   Mostly Cloudy
6:54 AM 28.0 °F - 26.1 °F 92% 29.89 in 10.0 mi Calm Calm - N/A   Mostly Cloudy
7:54 AM 32.0 °F 25.6 °F 28.9 °F 88% 29.87 in 10.0 mi East 6.9 mph - N/A   Overcast
8:54 AM 30.0 °F 24.1 °F 27.0 °F 88% 29.88 in 10.0 mi WNW 5.8 mph - N/A   Scattered Clouds
9:54 AM 32.0 °F 26.4 °F 28.0 °F 85% 29.85 in 10.0 mi ESE 5.8 mph - N/A   Mostly Cloudy
10:54 AM 35.1 °F 28.6 °F 28.9 °F 78% 29.82 in 10.0 mi ESE 8.1 mph - N/A   Mostly Cloudy
11:54 AM 35.1 °F 29.3 °F 28.9 °F 78% 29.80 in 10.0 mi ESE 6.9 mph - N/A   Scattered Clouds
12:54 PM 36.0 °F 31.1 °F 28.9 °F 76% 29.76 in 10.0 mi East 5.8 mph - N/A   Mostly Cloudy
1:54 PM 37.0 °F 34.5 °F 28.9 °F 73% 29.73 in 10.0 mi East 3.5 mph - N/A   Overcast
2:54 PM 37.0 °F 31.6 °F 28.9 °F 73% 29.71 in 10.0 mi East 6.9 mph - N/A   Scattered Clouds
3:54 PM 39.0 °F 32.8 °F 28.0 °F 65% 29.69 in 10.0 mi ENE 9.2 mph 18.4 mph 0.00 in Rain Light Rain
4:02 PM 41.0 °F 35.2 °F 28.4 °F 61% 29.67 in 10.0 mi ENE 9.2 mph 18.4 mph 0.00 in Rain Light Rain
4:54 PM 37.0 °F 29.3 °F 33.1 °F 86% 29.66 in 9.0 mi ENE 11.5 mph 20.7 mph 0.03 in Rain Light Rain
5:54 PM 37.0 °F 29.8 °F 34.0 °F 89% 29.64 in 5.0 mi East 10.4 mph 17.3 mph 0.08 in Rain Rain
6:07 PM 35.6 °F 28.6 °F 33.8 °F 93% 29.63 in 6.0 mi East 9.2 mph - 0.03 in Rain Rain
6:38 PM 35.6 °F 28.6 °F 33.8 °F 93% 29.60 in 6.0 mi East 9.2 mph - 0.09 in Rain Rain
6:54 PM 35.1 °F 26.4 °F 33.1 °F 92% 29.60 in 10.0 mi ESE 12.7 mph - 0.10 in Rain Light Rain
7:40 PM 33.8 °F 26.4 °F 33.8 °F 100% 29.58 in 3.0 mi East 9.2 mph - 0.06 in Snow Light Snow
7:50 PM 33.8 °F 25.8 °F 32.0 °F 93% 29.57 in 2.5 mi ESE 10.4 mph - 0.08 in Snow Light Snow
7:54 PM 33.1 °F 23.9 °F 32.0 °F 96% 29.58 in 2.0 mi SE 12.7 mph - 0.09 in Snow Light Snow
8:02 PM 33.8 °F 26.4 °F 32.0 °F 93% 29.57 in 2.5 mi ESE 9.2 mph - 0.01 in Snow Light Snow
8:11 PM 33.8 °F 26.4 °F 32.0 °F 93% 29.57 in 4.0 mi ESE 9.2 mph 18.4 mph 0.02 in Snow Light Snow
8:37 PM 33.8 °F 26.4 °F 32.0 °F 93% 29.56 in 2.5 mi East 9.2 mph - 0.07 in Snow Light Snow
8:52 PM 33.8 °F 25.8 °F 32.0 °F 93% 29.55 in 4.0 mi ESE 10.4 mph 19.6 mph 0.10 in Snow Light Snow
8:54 PM 33.1 °F 23.4 °F 32.0 °F 96% 29.56 in 4.0 mi SE 13.8 mph 18.4 mph 0.10 in Snow Light Snow
9:33 PM 35.6 °F 27.1 °F 33.8 °F 93% 29.54 in 5.0 mi East 12.7 mph 19.6 mph 0.08 in Rain Heavy Rain
9:54 PM 36.0 °F 27.5 °F 34.0 °F 93% 29.55 in 4.0 mi East 12.7 mph 23.0 mph 0.14 in Rain Heavy Rain
10:54 PM 36.0 °F 27.5 °F 34.0 °F 93% 29.55 in 7.0 mi East 12.7 mph 23.0 mph 0.13 in Rain Rain
11:54 PM 37.9 °F 29.2 °F 35.1 °F 89% 29.55 in 10.0 mi East 15.0 mph 25.3 mph 0.02 in Rain Light Rain